15min,AgWx,beryljct,423,11NOV2019:00:00:00,31.3,12.88,29.1,28.2,29.7,31.6,28.2,46,56,38,0.273,11.4,16.0,8.1,0.68,1.4,194,4.3,2.7,-0.00009,-0.00010,42.3,44.8,8,0,.,.,5.77,0.00,0.00
15min,AgWx,beryljct,423,11NOV2019:00:15:00,30.6,12.86,24.9,24.9,26.9,28.8,24.9,58,66,52,0.246,13.9,18.7,10.3,0,1.8,148,38,4.6,-0.00007,-0.00008,42.1,44.8,8,0,.,.,5.77,0.00,0.00
15min,AgWx,beryljct,423,11NOV2019:00:30:00,29.6,12.85,24.0,23.8,24.4,25.2,23.6,59,65,54,0.244,12.3,13.7,10.4,3.003,0.6,140,19,3.4,-0.00016,-0.00022,41.9,44.7,8,0,.,.,5.77,0.00,0.00
15min,AgWx,beryljct,423,11NOV2019:00:45:00,28.7,12.83,23.9,24.2,23.5,24.2,22.8,50,55,48,0.220,7.7,10.1,6.3,1.074,3.3,313,8.3,4.2,0.00002,0.00004,41.7,44.7,8,0,.,.,5.77,0.00,0.00
15min,AgWx,beryljct,423,11NOV2019:01:00:00,27.9,12.81,24.5,24.3,24.9,25.5,23.6,46,50,42,0.222,6.8,8.3,5.4,2.411,1.4,327,0.9,2.4,-0.00008,-0.00010,41.5,44.7,8,0,.,.,5.77,0.00,0.00
15min,AgWx,beryljct,423,11NOV2019:01:15:00,27.5,12.83,27.0,26.7,25.7,26.7,24.3,42,50,37,0.183,5.8,8.4,4.0,3.332,2.4,323,2.7,3.3,-0.00001,0.00001,41.3,44.6,8,0,.,.,5.77,0.00,0.00
15min,AgWx,beryljct,423,11NOV2019:01:30:00,27.5,12.81,27.8,27.5,27.1,27.9,26.6,37,37,36,0.183,3.9,4.8,3.2,1.973,2.7,318,4.2,3.5,0.00003,0.00006,41.1,44.6,8,0,.,.,5.77,0.00,0.00
15min,AgWx,beryljct,423,11NOV2019:01:45:00,27.3,12.81,24.8,24.5,25.5,27.5,24.5,42,48,36,0.214,5.4,7.5,3.4,0.241,0.4,311,0.0,2.0,-0.00017,-0.00025,40.9,44.5,8,0,.,.,5.77,0.00,0.00
15min,AgWx,beryljct,423,11NOV2019:02:00:00,26.8,12.79,25.4,24.6,24.1,24.6,23.6,54,59,47,0.240,9.8,11.6,7.2,0.57,0.1,306,9.3,0.7,-0.00020,-0.00032,40.7,44.5,8,0,.,.,5.77,0.00,0.00
15min,AgWx,beryljct,423,11NOV2019:02:15:00,26.3,12.78,23.8,22.7,23.6,24.8,22.5,55,63,49,0.213,9.7,13.4,6.7,4.647,2.9,177,22,5.0,-0.00001,0.00000,40.5,44.4,8,0,.,.,5.77,0.00,0.00
15min,AgWx,beryljct,423,11NOV2019:02:30:00,25.7,12.78,22.6,22.2,22.2,23.5,21.4,54,59,49,0.211,8.2,9.5,6.8,2.959,3.1,178,11,4.6,0.00000,0.00002,40.3,44.4,8,0,.,.,5.77,0.00,0.00
15min,AgWx,beryljct,423,11NOV2019:02:45:00,25.2,12.76,25.0,24.4,23.0,24.5,21.7,56,61,51,0.229,9.6,11.2,6.9,2.653,2.5,189,2.5,3.0,-0.00003,-0.00002,40.1,44.3,8,0,.,.,5.78,0.00,0.00
15min,AgWx,beryljct,423,11NOV2019:03:00:00,25.0,12.74,23.6,23.7,24.1,24.8,23.6,50,54,47,0.220,8.0,9.4,7.0,2.499,2.7,183,2.8,3.4,-0.00001,0.00001,39.9,44.3,8,0,.,.,5.77,0.00,0.00
15min,AgWx,beryljct,423,11NOV2019:03:15:00,24.7,12.75,20.8,21.1,22.3,23.6,21.1,51,64,44,0.247,6.7,11.4,4.5,2.806,2.2,200,48,3.1,-0.00003,-0.00002,39.8,44.2,8,0,.,.,5.78,0.01,0.00
15min,AgWx,beryljct,423,11NOV2019:03:30:00,24.2,12.74,20.7,20.4,20.2,21.1,19.8,59,63,56,0.231,8.1,10.5,6.9,0,1.5,330,2.5,3.2,-0.00008,-0.00009,39.6,44.2,8,0,.,.,5.78,0.00,0.00
15min,AgWx,beryljct,423,11NOV2019:03:45:00,23.7,12.73,20.3,21.6,22.0,23.4,20.3,51,62,45,0.197,6.5,9.5,4.7,2.653,0.6,331,32,2.8,-0.00015,-0.00021,39.4,44.1,8,0,.,.,5.78,0.00,0.00
15min,AgWx,beryljct,423,11NOV2019:04:00:00,23.3,12.71,23.0,22.7,21.3,22.8,20.2,53,55,49,0.216,6.6,8.1,4.9,2.105,1.5,158,0.0,2.5,-0.00007,-0.00008,39.2,44.0,8,0,.,.,5.78,0.00,0.00
15min,AgWx,beryljct,423,11NOV2019:04:15:00,23.1,12.7,20.8,20.9,21.9,22.7,20.9,52,54,50,0.193,7.0,8.0,5.2,2.455,2.4,163,4.1,3.1,-0.00002,-0.00001,39.1,44.0,8,0,.,.,5.78,0.00,0.00
15min,AgWx,beryljct,423,11NOV2019:04:30:00,22.6,12.7,20.6,19.9,19.4,20.9,18.8,52,54,49,0.200,4.6,6.0,3.7,1.315,1.8,177,5.9,2.6,-0.00005,-0.00006,38.9,43.9,8,0,.,.,5.78,0.00,0.00
15min,AgWx,beryljct,423,11NOV2019:04:45:00,22.2,12.69,22.6,22.4,21.7,22.8,19.8,49,54,43,0.179,5.3,7.3,2.3,0.11,1.0,178,6.9,2.1,-0.00010,-0.00014,38.7,43.8,8,0,.,.,5.78,0.00,0.00
15min,AgWx,beryljct,423,11NOV2019:05:00:00,21.9,12.7,18.6,18.6,19.7,22.4,18.6,58,69,43,0.240,7.2,10.0,3.0,2.499,1.1,31,57,3.4,-0.00010,-0.00013,38.5,43.8,8,0,.,.,5.78,0.00,0.00
15min,AgWx,beryljct,423,11NOV2019:05:15:00,21.5,12.68,17.8,17.3,17.6,18.7,16.9,60,70,55,0.187,5.9,10.2,3.8,4.012,4.2,330,22,5.9,0.00002,0.00003,38.4,43.7,8,0,.,.,5.78,0.00,0.00
15min,AgWx,beryljct,423,11NOV2019:05:30:00,21.0,12.68,17.5,17.6,17.7,18.4,17.1,55,57,53,0.182,4.3,4.9,3.7,2.806,4.1,352,15,5.5,0.00003,0.00005,38.2,43.7,8,0,.,.,5.78,0.00,0.00
15min,AgWx,beryljct,423,11NOV2019:05:45:00,20.6,12.68,18.0,17.7,17.3,17.8,16.8,57,60,54,0.191,4.8,5.4,3.8,2.105,1.5,328,16,3.4,-0.00007,-0.00008,38.1,43.6,8,0,.,.,5.78,0.00,0.00
15min,AgWx,beryljct,423,11NOV2019:06:00:00,20.2,12.68,18.4,17.9,18.7,19.6,17.7,58,64,53,0.210,6.2,8.9,4.6,0,0.8,27,27,4.9,-0.00011,-0.00016,37.9,43.5,8,0,.,.,5.78,0.00,0.00
15min,AgWx,beryljct,423,11NOV2019:06:15:00,20.0,12.66,20.4,19.6,18.9,19.6,18.0,67,73,62,0.253,9.9,11.7,7.2,0.395,0.2,111,5.0,1.6,-0.00016,-0.00025,37.7,43.4,8,0,.,.,5.78,0.00,0.00
15min,AgWx,beryljct,423,11NOV2019:06:30:00,20.0,12.65,20.2,19.6,19.5,20.5,18.8,64,69,59,0.220,9.1,11.3,7.6,1.666,2.3,191,10,4.3,0.00010,0.00018,37.6,43.4,8,0,.,.,5.78,0.00,0.00
15min,AgWx,beryljct,423,11NOV2019:06:45:00,20.2,12.65,22.9,22.9,20.9,23.6,19.4,65,72,57,0.242,11.0,13.3,8.2,2.74,1.5,294,73,4.2,0.00007,0.00012,37.4,43.3,8,0,.,.,5.78,0.00,0.00
15min,AgWx,beryljct,423,11NOV2019:07:00:00,20.7,12.64,27.1,24.0,22.1,24.0,21.1,57,60,54,0.242,9.1,10.2,7.5,3.683,2.6,319,7.9,4.5,0.00015,0.00025,37.3,43.2,8,1,.,.,5.78,0.00,0.00
15min,AgWx,beryljct,423,11NOV2019:07:15:00,21.5,12.65,22.1,23.8,24.6,25.9,22.8,51,55,49,0.217,8.9,10.4,7.5,3.946,4.0,323,4.4,5.0,0.00027,0.00046,37.2,43.2,8,5,.,.,5.78,0.00,0.00
15min,AgWx,beryljct,423,11NOV2019:07:30:00,22.3,12.86,27.6,27.1,25.8,30.5,23.1,49,51,44,0.228,9.1,11.9,7.2,3.135,3.3,325,3.7,4.2,0.00033,0.00051,37.0,43.1,8,30,.,.,5.78,0.00,0.00
15min,AgWx,beryljct,423,11NOV2019:07:45:00,24.1,13.26,32.8,32.2,30.5,32.4,26.9,44,48,41,0.256,11.3,12.1,8.9,1.162,2.2,349,13,3.2,0.00041,0.00058,36.9,43.0,8,66,.,.,5.78,0.00,0.00
15min,AgWx,beryljct,423,11NOV2019:08:00:00,27.1,13.99,34.7,34.5,33.6,34.6,32.1,41,42,40,0.279,12.3,13.4,11.4,1.995,1.9,329,21,2.5,0.00052,0.00069,36.8,42.9,8,98,.,.,5.78,0.00,0.00
15min,AgWx,beryljct,423,11NOV2019:08:15:00,30.6,14.78,35.9,35.5,35.2,35.6,34.6,42,44,41,0.302,14.5,15.4,13.6,2.565,2.3,312,11,3.3,0.00069,0.00090,36.7,42.9,8,140,.,.,5.78,0.00,0.00
15min,AgWx,beryljct,423,11NOV2019:08:30:00,33.9,14.7,37.3,36.9,36.1,36.9,35.6,42,43,41,0.306,15.3,15.9,14.7,4.713,3.1,350,32,6.0,0.00089,0.00116,36.6,42.8,8,180,.,.,5.78,0.00,0.00
15min,AgWx,beryljct,423,11NOV2019:08:45:00,36.7,14.71,39.4,39.2,37.7,39.2,37.0,41,42,40,0.337,16.0,17.7,15.3,6.16,4.8,11,11,6.9,0.00117,0.00158,36.5,42.7,8,221,.,.,5.78,0.00,0.00
15min,AgWx,beryljct,423,11NOV2019:09:00:00,39.3,14.67,40.9,40.9,40.3,40.9,39.2,41,42,41,0.362,18.5,19.4,17.6,5.941,6.4,20,13,8.5,0.00145,0.00198,36.5,42.6,8,263,.,.,5.77,0.00,0.00
15min,AgWx,beryljct,423,11NOV2019:09:15:00,41.5,14.57,42.0,42.2,41.2,42.2,40.8,41,42,40,0.370,19.1,20.0,18.5,6.226,6.4,9.4,10,8.5,0.00162,0.00217,36.5,42.6,8,304,.,.,5.77,0.00,0.00
15min,AgWx,beryljct,423,11NOV2019:09:30:00,43.7,14.55,44.6,44.7,43.3,44.7,42.2,40,40,39,0.396,20.4,21.6,19.3,8.09,5.8,14,11,8.1,0.00182,0.00238,36.5,42.5,8,343,.,.,5.77,0.00,0.00
15min,AgWx,beryljct,423,11NOV2019:09:45:00,46.1,14.51,47.9,47.6,46.6,47.6,44.7,39,40,39,0.443,23.3,24.2,21.3,9.05,8.9,28,11,12.2,0.00222,0.00303,36.7,42.4,8,380,.,.,5.77,0.00,0.00
15min,AgWx,beryljct,423,11NOV2019:10:00:00,48.3,14.46,48.9,49.3,48.2,49.6,47.6,39,40,38,0.455,24.5,25.7,23.9,9.56,10.1,19,13,13.4,0.00248,0.00339,36.8,42.4,8,415,.,.,5.77,0.00,0.00
15min,AgWx,beryljct,423,11NOV2019:10:15:00,50.1,14.02,50.2,50.6,49.7,50.7,48.8,38,39,38,0.476,25.4,26.4,24.5,13.33,11.8,18,15,17.5,0.00274,0.00378,37.0,42.3,8,448,.,.,5.77,0.00,0.00
15min,AgWx,beryljct,423,11NOV2019:10:30:00,51.6,14.01,52.0,51.7,51.2,52.0,50.4,38,39,37,0.490,26.3,27.0,25.7,15.67,14.2,31,12,19.3,0.00302,0.00424,37.2,42.2,8,478,.,.,5.76,0.00,0.00
15min,AgWx,beryljct,423,11NOV2019:10:45:00,53.0,13.98,52.9,52.4,52.1,52.9,51.5,37,38,36,0.491,26.4,27.3,25.6,14.62,14.2,35,11,19.3,0.00320,0.00448,37.5,42.2,8,504,.,.,5.76,0.00,0.00
15min,AgWx,beryljct,423,11NOV2019:11:00:00,54.1,13.97,54.8,53.1,52.7,53.2,52.2,36,37,35,0.491,26.6,27.3,25.8,11.49,15.2,44,9.9,22.0,0.00336,0.00471,37.8,42.1,8,528,.,.,5.76,0.00,0.00
15min,AgWx,beryljct,423,11NOV2019:11:15:00,54.9,14.05,52.6,52.9,53.3,54.0,52.8,36,37,34,0.494,26.7,27.9,25.7,19.6,15.9,39,8.2,22.0,0.00349,0.00490,38.2,42.1,8,547,.,.,5.76,0.00,0.00
15min,AgWx,beryljct,423,11NOV2019:11:30:00,55.5,13.94,53.1,53.8,53.5,54.4,52.8,36,37,35,0.489,27.2,28.2,26.5,18.13,16.9,42,9.6,23.5,0.00357,0.00504,38.5,42.0,8,563,.,.,5.76,0.00,0.00
15min,AgWx,beryljct,423,11NOV2019:11:45:00,55.9,13.92,55.4,54.1,53.7,54.1,53.4,35,36,35,0.504,26.9,27.4,26.4,11.88,16.5,42,11,20.4,0.00363,0.00511,38.9,42.0,8,576,.,.,5.76,0.00,0.00
15min,AgWx,beryljct,423,11NOV2019:12:00:00,56.2,13.93,55.6,54.2,54.0,54.5,53.6,36,37,34,0.522,27.5,28.9,26.8,13.68,16.8,44,9.1,22.3,0.00368,0.00517,39.4,42.0,8,585,.,.,5.75,0.00,0.00
15min,AgWx,beryljct,423,11NOV2019:12:15:00,56.6,13.95,54.4,54.3,54.3,55.0,53.7,36,37,35,0.506,27.7,28.9,26.8,21.51,18.1,42,11,24.2,0.00375,0.00530,39.8,42.0,8,590,.,.,5.76,0.00,0.00
15min,AgWx,beryljct,423,11NOV2019:12:30:00,56.7,13.9,55.2,54.6,54.4,55.1,54.1,35,36,33,0.487,27.2,28.6,26.1,15.24,17.4,38,11,23.1,0.00378,0.00533,40.2,42.0,8,590,.,.,5.75,0.00,0.00
15min,AgWx,beryljct,423,11NOV2019:12:45:00,57.1,13.88,55.5,54.7,54.6,55.1,54.2,35,37,33,0.498,27.2,29.3,26.0,15.67,16.4,36,8.4,20.6,0.00376,0.00527,40.6,42.0,8,589,.,.,5.75,0.00,0.00
15min,AgWx,beryljct,423,11NOV2019:13:00:00,57.3,13.89,55.3,55.2,54.8,55.3,54.5,33,35,32,0.502,26.5,27.8,25.0,14.73,16.2,36,12,21.1,0.00377,0.00531,41.1,42.0,8,582,.,.,5.75,0.00,0.00
15min,AgWx,beryljct,423,11NOV2019:13:15:00,57.6,13.89,54.4,54.9,54.9,55.4,54.5,34,36,32,0.479,26.8,28.4,25.1,18.06,16.4,47,9.9,21.6,0.00375,0.00528,41.5,42.0,8,576,.,.,5.75,0.00,0.00
15min,AgWx,beryljct,423,11NOV2019:13:30:00,57.8,13.88,54.6,54.9,55.0,55.7,54.4,35,38,32,0.526,27.8,29.5,25.7,19.8,15.2,38,11,20.7,0.00358,0.00502,41.9,42.0,8,550,.,.,5.75,0.00,0.00
15min,AgWx,beryljct,423,11NOV2019:13:45:00,57.9,13.95,55.7,55.1,54.8,55.1,54.5,36,39,34,0.566,28.6,30.3,27.0,12.65,15.3,35,12,20.6,0.00356,0.00498,42.3,42.0,8,555,.,.,5.75,0.00,0.00
15min,AgWx,beryljct,423,11NOV2019:14:00:00,58.0,13.88,54.4,54.3,54.9,55.3,54.3,37,39,35,0.553,29.4,30.6,28.2,17.84,15.9,43,9.1,20.8,0.00334,0.00475,42.7,42.1,8,501,.,.,5.75,0.00,0.00
15min,AgWx,beryljct,423,11NOV2019:14:15:00,57.4,13.93,54.1,54.1,54.4,54.9,54.0,37,40,36,0.527,29.0,30.5,27.8,18.04,15.7,38,10,21.1,0.00301,0.00439,43.1,42.1,8,430,.,.,5.75,0.00,0.00
15min,AgWx,beryljct,423,11NOV2019:14:30:00,56.3,13.87,55.2,55.1,54.8,55.3,54.0,35,39,31,0.460,27.9,30.0,25.1,14.4,16.0,33,12,21.8,0.00312,0.00457,43.5,42.2,8,434,.,.,5.75,0.00,0.00
15min,AgWx,beryljct,423,11NOV2019:14:45:00,56.5,13.86,55.4,55.6,55.3,55.6,54.9,32,33,28,0.423,25.6,26.9,23.0,13.15,15.1,28,12,21.8,0.00312,0.00461,43.8,42.3,8,413,.,.,5.75,0.00,0.00
15min,AgWx,beryljct,423,11NOV2019:15:00:00,57.1,13.86,55.2,55.3,55.8,56.1,55.3,30,32,28,0.433,24.7,26.5,23.2,16.02,14.9,32,9.5,19.8,0.00313,0.00466,44.2,42.3,8,402,.,.,5.75,0.00,0.00
15min,AgWx,beryljct,423,11NOV2019:15:15:00,57.7,13.84,55.6,55.7,55.8,56.3,55.3,28,29,25,0.388,22.8,24.5,20.7,16.22,15.2,44,9.1,20.9,0.00322,0.00481,44.5,42.4,8,404,.,.,5.75,0.00,0.00
15min,AgWx,beryljct,423,11NOV2019:15:30:00,58.2,13.83,56.0,56.2,56.0,56.4,55.7,26,28,25,0.412,21.9,23.2,20.8,14.36,15.7,43,11,20.8,0.00329,0.00495,44.7,42.5,8,404,.,.,5.75,0.00,0.00
15min,AgWx,beryljct,423,11NOV2019:15:45:00,58.6,13.89,55.4,55.4,55.8,56.2,55.4,25,27,23,0.355,20.7,22.7,18.6,14.25,15.4,49,9.1,20.5,0.00293,0.00457,45.0,42.6,8,315,.,.,5.75,0.00,0.00
15min,AgWx,beryljct,423,11NOV2019:16:00:00,58.4,13.85,55.2,55.3,55.5,55.9,55.3,24,25,23,0.360,19.3,20.8,17.8,13.88,14.4,45,9.0,20.7,0.00276,0.00434,45.1,42.7,8,290,.,.,5.75,0.00,0.00
15min,AgWx,beryljct,423,11NOV2019:16:15:00,58.2,13.87,54.6,54.6,55.0,55.3,54.6,24,26,23,0.374,19.2,20.4,18.1,14.75,15.2,46,9.8,19.3,0.00264,0.00424,45.3,42.8,8,256,.,.,5.75,0.00,0.00
15min,AgWx,beryljct,423,11NOV2019:16:30:00,57.5,13.86,53.4,53.3,53.9,54.6,53.3,26,27,25,0.375,20.0,21.2,19.3,14.97,15.2,43,7.4,19.5,0.00101,0.00117,45.4,42.9,8,170,.,.,5.75,0.01,0.00
15min,AgWx,beryljct,423,11NOV2019:16:45:00,56.4,13.94,52.5,52.3,52.9,53.4,52.3,28,30,27,0.401,20.7,21.9,20.1,10.7,12.9,45,9.0,19.2,0.00088,0.00103,45.4,43.0,8,131,.,.,5.75,0.00,0.00
15min,AgWx,beryljct,423,11NOV2019:17:00:00,55.2,13.93,50.5,51.3,52.0,52.4,51.3,30,31,29,0.402,21.7,22.2,21.2,6.949,12.3,47,8.1,18.0,0.00078,0.00092,45.4,43.1,8,98,.,.,5.75,0.00,0.00
15min,AgWx,beryljct,423,11NOV2019:17:15:00,53.7,13.25,50.1,50.0,50.7,51.2,50.0,32,33,31,0.402,21.7,22.2,21.3,13.11,11.1,37,12,16.6,0.00063,0.00077,45.3,43.2,8,40,.,.,5.75,0.00,0.00
15min,AgWx,beryljct,423,11NOV2019:17:30:00,52.0,13.17,48.8,49.2,49.7,50.1,49.1,33,34,32,0.401,21.8,22.1,21.5,9.73,13.3,28,8.5,17.0,0.00063,0.00075,45.3,43.3,8,11,.,.,5.75,0.00,0.00
15min,AgWx,beryljct,423,11NOV2019:17:45:00,50.3,13.13,48.4,48.2,48.4,49.0,48.1,35,36,34,0.406,21.9,22.2,21.6,11,10.3,33,11,14.3,0.00050,0.00061,45.1,43.4,8,2,.,.,5.75,0.00,0.00
15min,AgWx,beryljct,423,11NOV2019:18:00:00,49.1,13.1,46.6,47.1,48.1,48.3,47.1,36,37,35,0.406,22.2,22.7,21.7,7.607,11.2,18,11,16.6,0.00051,0.00062,44.9,43.5,8,0,.,.,5.75,0.00,0.00
15min,AgWx,beryljct,423,11NOV2019:18:15:00,47.8,13.08,44.4,45.2,46.1,47.1,45.2,38,40,37,0.407,22.2,22.4,21.9,5.305,6.8,24,5.7,9.6,0.00031,0.00041,44.8,43.6,9,0,.,.,5.75,0.00,0.00
15min,AgWx,beryljct,423,11NOV2019:18:30:00,46.0,13.08,45.3,44.5,43.6,45.1,42.5,41,43,39,0.391,21.6,22.4,21.0,5.196,4.4,28,10,6.0,0.00015,0.00022,44.5,43.7,8,0,.,.,5.75,0.00,0.00
15min,AgWx,beryljct,423,11NOV2019:18:45:00,44.4,13.05,39.9,39.6,42.5,45.1,39.6,43,49,38,0.404,21.6,22.3,21.1,6.862,5.9,50,27,7.2,0.00021,0.00029,44.3,43.8,8,0,.,.,5.76,0.00,0.00
15min,AgWx,beryljct,423,11NOV2019:19:00:00,42.9,13.04,41.3,41.6,41.5,42.9,39.6,47,50,45,0.414,22.9,23.5,22.0,5.897,7.0,56,7.7,9.2,0.00023,0.00029,44.1,43.8,8,0,.,.,5.76,0.00,0.00
15min,AgWx,beryljct,423,11NOV2019:19:15:00,42.2,13.02,43.8,43.0,42.1,43.0,41.4,47,48,47,0.444,23.6,24.2,22.7,11.31,8.1,52,8.7,11.9,0.00026,0.00033,43.8,43.9,8,0,.,.,5.76,0.00,0.00
15min,AgWx,beryljct,423,11NOV2019:19:30:00,42.2,13.02,42.0,41.6,43.1,43.8,41.6,47,48,46,0.430,24.0,24.5,23.4,5.875,8.7,29,8.7,14.3,0.00029,0.00037,43.6,43.9,9,0,.,.,5.75,0.00,0.00
15min,AgWx,beryljct,423,11NOV2019:19:45:00,41.7,13.02,39.5,40.0,41.3,41.9,40.0,48,50,47,0.416,22.9,23.5,22.4,0,1.5,33,27,5.3,-0.00011,-0.00013,43.3,44.0,8,0,.,.,5.76,0.01,0.00
15min,AgWx,beryljct,423,11NOV2019:20:00:00,40.5,13.01,39.4,39.6,38.7,40.0,37.0,53,57,50,0.431,23.2,23.9,22.4,4.341,3.4,192,23,5.0,0.00002,0.00005,43.1,44.0,8,0,.,.,5.76,0.00,0.00
15min,AgWx,beryljct,423,11NOV2019:20:15:00,39.6,13,40.3,40.8,40.3,41.1,38.7,50,53,48,0.415,23.1,23.9,22.6,0.723,2.7,160,36,5.2,-0.00001,0.00002,42.8,44.1,8,0,.,.,5.77,0.01,0.00
15min,AgWx,beryljct,423,11NOV2019:20:30:00,38.8,12.99,37.3,36.3,38.8,40.8,36.3,52,56,48,0.406,22.5,22.9,22.0,4.494,2.8,184,23,4.7,-0.00001,0.00001,42.6,44.1,8,0,.,.,5.76,0.00,0.00
15min,AgWx,beryljct,423,11NOV2019:20:45:00,37.9,12.99,40.0,39.3,37.5,39.3,34.9,55,61,51,0.418,22.9,23.6,22.3,2.17,2.4,186,12,5.1,-0.00004,-0.00004,42.3,44.1,8,0,.,.,5.77,0.00,0.00
15min,AgWx,beryljct,423,11NOV2019:21:00:00,37.4,12.96,40.2,40.6,40.2,40.9,39.3,49,51,48,0.419,22.7,23.0,22.4,1.293,1.6,212,20,3.2,-0.00010,-0.00012,42.1,44.1,8,0,.,.,5.76,0.00,0.00
15min,AgWx,beryljct,423,11NOV2019:21:15:00,37.2,12.96,37.8,38.4,39.8,40.7,38.0,50,53,49,0.414,22.7,23.0,21.8,6.16,3.5,358,12,6.6,0.00004,0.00008,41.8,44.1,8,0,.,.,5.77,0.00,0.00
15min,AgWx,beryljct,423,11NOV2019:21:30:00,37.3,12.96,37.0,37.5,38.7,39.4,37.5,52,54,52,0.409,22.7,23.1,22.2,3.135,4.5,8.3,11,6.4,0.00009,0.00013,41.6,44.1,8,0,.,.,5.77,0.00,0.00
15min,AgWx,beryljct,423,11NOV2019:21:45:00,37.1,12.94,34.6,34.5,36.2,37.5,34.5,56,60,54,0.407,22.1,22.3,21.3,1.096,3.5,18,13,5.5,0.00002,0.00005,41.4,44.1,9,0,.,.,5.77,0.00,0.00
15min,AgWx,beryljct,423,11NOV2019:22:00:00,36.2,12.93,35.5,34.6,34.2,35.0,33.4,61,62,59,0.408,22.1,22.4,21.8,0,1.0,309,52,2.6,-0.00016,-0.00022,41.2,44.1,8,0,.,.,5.77,0.00,0.00
15min,AgWx,beryljct,423,11NOV2019:22:15:00,35.2,12.93,35.8,35.0,35.4,36.1,34.4,59,61,57,0.418,22.6,22.9,22.1,1.907,1.5,344,34,4.6,-0.00012,-0.00015,41.1,44.1,8,0,.,.,5.77,0.00,0.00
15min,AgWx,beryljct,423,11NOV2019:22:30:00,34.6,12.92,36.4,36.0,35.9,36.5,35.1,59,60,58,0.424,23.0,23.5,22.2,1.469,1.3,316,35,2.4,-0.00013,-0.00017,40.9,44.1,8,0,.,.,5.77,0.00,0.00
15min,AgWx,beryljct,423,11NOV2019:22:45:00,34.1,12.91,35.8,35.3,35.6,36.1,35.3,60,60,59,0.420,23.0,23.3,22.8,0,0.6,8.4,14,1.7,-0.00020,-0.00029,40.8,44.1,8,0,.,.,5.77,0.00,0.00
15min,AgWx,beryljct,423,11NOV2019:23:00:00,33.6,12.9,35.2,34.9,35.2,35.6,34.9,61,61,60,0.422,23.0,23.3,22.8,1.271,1.1,23,12,2.7,-0.00016,-0.00021,40.6,44.0,8,0,.,.,5.77,0.00,0.00
15min,AgWx,beryljct,423,11NOV2019:23:15:00,33.2,12.89,34.8,34.6,34.6,35.0,34.5,62,63,62,0.424,23.1,23.2,22.9,1.929,0.6,69,11,2.2,-0.00020,-0.00029,40.5,44.0,8,0,.,.,5.77,0.00,0.00
15min,AgWx,beryljct,423,11NOV2019:23:30:00,33.1,12.89,32.9,32.5,33.5,34.6,31.8,63,67,62,0.411,22.4,23.1,21.5,2.543,2.5,345,34,5.1,-0.00005,-0.00005,40.4,44.0,8,0,.,.,5.77,0.00,0.00
15min,AgWx,beryljct,423,11NOV2019:23:45:00,32.7,12.88,34.1,32.7,32.7,33.3,31.9,65,66,64,0.416,22.2,22.7,21.6,2.061,2.3,321,19,4.2,-0.00007,-0.00008,40.3,43.9,8,0,.,.,5.78,0.00,0.00
15min,AgWx,bigpiney,439,11NOV2019:00:00:00,35.1,12.7,31.5,32.1,33.3,34.3,32.1,70,74,66,0.411,24.4,26.8,22.4,3.683,3.8,333,19,6.5,0.00012,0.00016,33.5,35.3,48,0,0,0.0,5.53,0.00,0.00
15min,AgWx,bigpiney,439,11NOV2019:00:15:00,34.6,12.7,31.9,31.7,32.0,32.4,31.7,66,68,65,0.394,22.1,22.5,21.4,4.362,4.2,339,15,7.6,0.00014,0.00018,33.5,35.3,48,0,0,0.0,5.53,0.00,0.00
15min,AgWx,bigpiney,439,11NOV2019:00:30:00,33.8,12.69,31.9,31.8,31.6,31.8,31.4,64,66,63,0.383,20.9,21.4,20.4,4.406,3.9,334,7.0,5.5,0.00014,0.00018,33.5,35.3,48,0,0,0.0,5.53,0.00,0.00
15min,AgWx,bigpiney,439,11NOV2019:00:45:00,33.3,12.69,32.2,32.5,32.3,33.1,31.5,61,64,58,0.365,20.4,20.9,19.6,6.62,6.4,321,8.4,9.7,0.00019,0.00024,33.5,35.3,48,0,0,0.0,5.53,0.00,0.00
15min,AgWx,bigpiney,439,11NOV2019:01:00:00,33.0,12.69,29.7,29.4,30.4,32.5,29.0,63,65,59,0.358,19.2,19.6,18.8,6.883,6.6,308,7.6,8.8,0.00018,0.00022,33.5,35.3,48,0,0,0.0,5.53,0.00,0.00
15min,AgWx,bigpiney,439,11NOV2019:01:15:00,32.4,12.68,30.5,29.8,29.1,29.8,28.7,66,67,65,0.366,19.2,19.7,19.0,9.25,7.0,308,6.2,10.6,0.00016,0.00019,33.5,35.3,48,0,0,0.0,5.53,0.00,0.00
15min,AgWx,bigpiney,439,11NOV2019:01:30:00,31.8,12.68,30.4,30.4,30.3,30.6,29.8,64,65,63,0.363,19.6,19.8,19.3,7.826,9.1,316,7.7,11.3,0.00019,0.00022,33.5,35.3,48,0,0,0.0,5.53,0.00,0.00
15min,AgWx,bigpiney,439,11NOV2019:01:45:00,31.5,12.68,29.9,29.5,29.9,30.3,29.4,63,65,63,0.355,19.1,19.4,18.8,9.6,8.6,317,9.5,10.2,0.00019,0.00022,33.5,35.3,48,0,0,0.0,5.53,0.00,0.00
15min,AgWx,bigpiney,439,11NOV2019:02:00:00,31.0,12.68,29.0,28.9,29.2,29.5,28.7,65,66,64,0.353,18.9,19.0,18.6,6.599,8.0,314,7.2,9.9,0.00017,0.00021,33.5,35.3,48,0,0,0.0,5.53,0.00,0.00
15min,AgWx,bigpiney,439,11NOV2019:02:15:00,30.5,12.67,25.1,25.2,26.8,28.9,25.1,69,73,65,0.335,17.9,18.7,16.7,2.192,4.7,351,41,8.2,0.00012,0.00015,33.5,35.3,48,0,0,0.0,5.53,0.00,0.00
15min,AgWx,bigpiney,439,11NOV2019:02:30:00,29.4,12.67,24.9,24.9,25.6,26.1,24.9,75,77,73,0.354,18.8,19.3,17.6,1.556,1.9,33,17,3.9,0.00005,0.00008,33.5,35.3,48,0,0,0.0,5.53,0.00,0.00
15min,AgWx,bigpiney,439,11NOV2019:02:45:00,28.3,12.67,22.9,23.3,24.6,25.2,23.3,78,80,77,0.333,18.8,19.3,17.2,2.631,2.2,305,51,3.9,0.00005,0.00007,33.5,35.4,48,0,0,0.0,5.53,0.00,0.00
15min,AgWx,bigpiney,439,11NOV2019:03:00:00,27.1,12.66,25.1,24.9,24.0,25.1,23.1,78,80,75,0.352,18.2,19.2,17.2,4.121,3.1,309,14,5.1,0.00006,0.00008,33.5,35.3,48,0,0,0.0,5.53,0.00,0.00
15min,AgWx,bigpiney,439,11NOV2019:03:15:00,26.1,12.66,22.1,21.7,23.4,25.0,21.6,78,81,76,0.322,17.6,18.8,16.3,2.674,4.3,286,5.8,5.0,0.00007,0.00009,33.5,35.2,48,0,0,0.0,5.53,0.00,0.00
15min,AgWx,bigpiney,439,11NOV2019:03:30:00,25.1,12.65,23.4,23.2,22.4,23.2,21.7,80,81,78,0.339,17.1,17.9,16.3,3.595,1.5,314,33,3.6,0.00003,0.00005,33.5,35.3,48,0,0,0.0,5.53,0.00,0.00
15min,AgWx,bigpiney,439,11NOV2019:03:45:00,24.3,12.65,21.9,22.5,23.0,23.8,22.0,78,80,77,0.316,17.2,18.2,16.2,2.609,3.8,288,11,4.3,0.00006,0.00008,33.5,35.3,48,0,0,0.0,5.53,0.00,0.00
15min,AgWx,bigpiney,439,11NOV2019:04:00:00,23.4,12.64,19.9,21.2,20.3,22.3,19.8,80,82,75,0.306,15.1,16.2,13.6,0.592,3.3,317,41,5.2,0.00005,0.00007,33.5,35.3,48,0,0,0.0,5.53,0.00,0.00
15min,AgWx,bigpiney,439,11NOV2019:04:15:00,22.5,12.64,17.5,17.9,18.5,21.0,17.3,79,82,76,0.274,13.2,15.3,11.9,5.196,5.0,201,14,8.0,0.00006,0.00007,33.5,35.3,48,0,0,0.0,5.53,0.00,0.00
15min,AgWx,bigpiney,439,11NOV2019:04:30:00,21.7,12.64,22.5,22.2,17.9,22.6,16.6,81,84,76,0.308,13.2,17.2,11.8,5.985,5.3,225,14,7.3,0.00005,0.00007,33.5,35.2,48,0,0,0.0,5.53,0.00,0.00
15min,AgWx,bigpiney,439,11NOV2019:04:45:00,21.1,12.64,18.6,20.3,21.5,23.2,19.6,74,78,71,0.284,14.5,16.7,12.4,0.548,4.2,269,14,5.7,0.00008,0.00010,33.5,35.3,48,0,0,0.0,5.53,0.00,0.00
15min,AgWx,bigpiney,439,11NOV2019:05:00:00,20.7,12.64,16.7,16.0,17.1,20.0,15.1,81,85,73,0.259,12.3,14.0,8.7,4.889,5.9,132,32,10.9,0.00006,0.00007,33.5,35.3,48,0,0,0.0,5.53,0.00,0.00
15min,AgWx,bigpiney,439,11NOV2019:05:15:00,20.2,12.63,15.6,15.2,15.6,16.0,15.0,84,84,83,0.254,11.5,12.0,10.9,4.472,5.6,157,17,8.1,0.00004,0.00005,33.5,35.4,48,0,0,0.0,5.53,0.00,0.00
15min,AgWx,bigpiney,439,11NOV2019:05:30:00,19.7,12.62,13.5,13.0,14.1,15.2,13.0,84,86,84,0.235,10.3,11.3,9.3,1.666,4.0,174,16,6.2,0.00004,0.00004,33.5,35.3,48,0,0,0.0,5.53,0.00,0.00
15min,AgWx,bigpiney,439,11NOV2019:05:45:00,18.7,12.62,12.9,12.6,12.2,13.1,10.6,86,89,83,0.236,8.9,10.2,6.6,1.096,1.6,201,66,3.6,0.00002,0.00003,33.5,35.3,48,0,0,0.0,5.53,0.00,0.00
15min,AgWx,bigpiney,439,11NOV2019:06:00:00,17.7,12.62,13.1,12.3,12.4,13.3,11.8,88,89,85,0.237,9.4,10.4,8.5,0,0.9,100,36,3.3,0.00001,0.00002,33.5,35.3,48,0,0,0.0,5.53,0.00,0.00
15min,AgWx,bigpiney,439,11NOV2019:06:15:00,16.7,12.62,9.0,9.0,11.4,12.5,9.0,88,89,86,0.197,8.5,9.9,5.7,3.376,2.0,60,15,3.4,0.00002,0.00002,33.5,35.3,48,0,0,0.0,5.53,0.00,0.00
15min,AgWx,bigpiney,439,11NOV2019:06:30:00,15.7,12.61,6.8,6.3,7.2,8.9,5.9,87,88,86,0.178,4.2,5.6,2.7,4.056,3.4,87,8.7,4.9,0.00002,0.00003,33.5,35.3,48,0,0,0.0,5.53,0.00,0.00
15min,AgWx,bigpiney,439,11NOV2019:06:45:00,14.5,12.61,7.3,6.6,6.2,6.8,5.8,87,88,86,0.181,3.2,4.0,2.7,1.206,2.7,74,11,4.9,0.00002,0.00002,33.5,35.3,48,0,0,0.0,5.53,0.00,0.00
15min,AgWx,bigpiney,439,11NOV2019:07:00:00,13.5,12.62,8.4,8.2,7.6,8.3,6.6,88,89,88,0.194,4.8,5.5,3.8,1.666,2.0,46,18,3.0,0.00002,0.00002,33.5,35.2,48,2,0,0.0,5.53,0.00,0.00
15min,AgWx,bigpiney,439,11NOV2019:07:15:00,12.6,12.7,7.6,7.2,7.4,8.2,6.9,87,88,87,0.184,4.4,5.3,3.8,1.556,2.5,345,18,4.1,0.00002,0.00003,33.5,35.3,48,8,0,0.0,5.53,0.00,0.00
15min,AgWx,bigpiney,439,11NOV2019:07:30:00,11.9,12.79,6.8,7.0,7.2,7.4,6.9,87,87,86,0.181,4.0,4.4,3.6,3.157,2.9,325,4.7,3.5,-0.00013,-0.00012,33.5,35.3,48,17,0,0.0,5.53,0.00,0.00
15min,AgWx,bigpiney,439,11NOV2019:07:45:00,11.3,13.1,7.3,6.5,6.6,7.1,6.3,86,87,85,0.176,3.3,3.9,2.9,3.99,4.0,312,7.4,4.8,-0.00004,-0.00001,33.5,35.3,48,30,0,0.0,5.53,0.00,0.00
15min,AgWx,bigpiney,439,11NOV2019:08:00:00,11.1,15,10.1,9.5,8.1,9.5,6.6,87,87,86,0.203,4.9,6.3,3.3,2.565,3.4,310,4.3,4.2,0.00001,0.00003,33.5,35.3,49,61,0,0.0,5.53,0.00,0.00
15min,AgWx,bigpiney,439,11NOV2019:08:15:00,11.6,14.99,11.9,11.3,10.5,11.3,9.5,86,87,85,0.217,7.2,7.8,6.3,3.332,2.9,330,9.0,4.2,0.00008,0.00011,33.5,35.3,49,89,0,0.0,5.53,0.00,0.00
15min,AgWx,bigpiney,439,11NOV2019:08:30:00,12.5,14.99,12.6,12.1,11.6,12.2,11.2,85,85,84,0.222,7.9,8.4,7.5,3.003,3.7,339,7.8,5.1,0.00017,0.00021,33.5,35.3,49,123,0,0.0,5.53,0.00,0.00
15min,AgWx,bigpiney,439,11NOV2019:08:45:00,13.8,15,13.1,12.5,12.3,12.8,11.9,84,85,83,0.221,8.3,9.0,7.9,0.767,1.6,343,16,3.9,0.00023,0.00026,33.5,35.3,49,131,0,0.0,5.53,0.00,0.00